Date,TemperatureHighF,TemperatureAvgF,TemperatureLowF,DewpointHighF,DewpointAvgF,DewpointLowF,HumidityHigh,HumidityAvg,HumidityLow,PressureMaxIn,PressureMinIn,WindSpeedMaxMPH,WindSpeedAvgMPH,GustSpeedMaxMPH,PrecipitationSumIn
2013-2-1,33,26,16,21,11,3,80,54,35,29.93,29.37,17,6,17,0.00
2013-2-2,31,21,11,20,10,3,75,64,48,29.93,29.55,7,1,7,0.00
2013-2-3,36,29,24,28,22,14,81,75,60,29.55,29.36,17,3,17,0.00
2013-2-4,40,31,23,22,17,12,66,56,44,29.63,29.43,13,3,13,0.00
2013-2-5,41,34,30,34,28,22,86,78,66,29.49,29.40,2,0,2,0.00
2013-2-6,51,36,26,34,28,20,87,72,49,29.89,29.49,9,2,9,0.00
2013-2-7,41,32,23,27,23,18,81,70,54,29.96,29.75,6,1,6,0.00
2013-2-8,44,36,32,37,29,23,83,76,66,29.74,29.35,14,3,14,0.00
2013-2-9,52,34,24,23,18,12,68,55,32,29.94,29.55,13,4,13,0.00
2013-2-10,48,33,16,24,17,10,76,54,32,30.00,29.73,7,2,7,0.00
2013-2-11,68,50,36,51,36,22,87,63,25,29.73,29.25,13,4,13,0.00
2013-2-12,72,48,38,34,26,21,53,44,25,29.55,29.40,11,4,11,0.00
2013-2-13,48,36,27,33,26,18,81,67,54,29.50,29.23,3,0,3,0.00
2013-2-14,57,40,30,34,28,22,84,65,38,29.56,29.35,8,2,8,0.00
2013-2-15,58,41,30,38,30,22,82,67,43,29.58,29.48,8,1,8,0.00
2013-2-16,40,34,27,31,24,14,84,68,54,29.55,29.43,3,1,3,0.00
2013-2-17,33,26,23,16,12,7,69,55,36,29.77,29.43,14,6,14,0.00
2013-2-18,50,32,17,19,13,5,63,46,26,29.92,29.65,9,2,9,0.00
2013-2-19,45,36,29,34,24,17,79,60,49,29.65,29.34,10,3,10,0.00
2013-2-20,36,31,23,20,14,8,55,50,42,29.74,29.42,16,8,16,0.00
2013-2-21,48,31,23,21,14,9,61,51,33,29.88,29.69,11,5,11,0.00
2013-2-22,33,30,26,27,22,14,79,71,60,29.92,29.73,5,2,5,0.00
2013-2-23,58,40,33,43,32,27,82,75,57,29.72,29.40,5,1,5,0.00
2013-2-24,57,42,30,35,28,17,86,62,33,29.69,29.37,15,3,15,0.00
2013-2-25,42,30,25,20,16,15,67,58,41,29.75,29.69,2,0,2,0.00
2013-2-26,40,33,24,36,27,15,90,78,64,29.75,29.21,6,1,6,0.00
2013-2-27,58,45,37,44,35,32,89,71,45,29.26,29.14,10,3,10,0.00
2013-2-28,45,40,36,34,29,26,72,63,51,29.30,29.21,10,4,10,0.00